Luverne, MN

6:55 PM CDT on September 20, 2019 (GMT -0500)
Luverne

Weather History for KLYV - August, 2019

Change the Weather History Date:

Monday, August 19, 2019

  Actual Average (KPQN) Record (KPQN)
Temperature  
Mean Temperature 66 °F -  
Max Temperature 80 °F 77 °F 89 °F (1998)
Min Temperature 51 °F 57 °F 37 °F (2004)
Growing Degree Days 16 (Base 50)    
Moisture  
Dew Point 60 °F    
Average Humidity 78    
Maximum Humidity 94    
Minimum Humidity 58    
Precipitation  
Precipitation 0.00 in - - ()
Sea Level Pressure  
Sea Level Pressure 29.99 in    
Wind  
Wind Speed 3 mph (SSE)    
Max Wind Speed 12 mph    
Max Gust Speed 16 mph    
Visibility 10 miles    
Events      
Averages and records for this station are not official NWS values.
T = Trace of Precipitation, MM = Missing Value Source: NWS Daily Summary

Daily Weather History Graph

Daily Weather History Graph

Search for Another Location

Airport or City:

Astronomy

Aug. 19, 2019 Rise Set
Actual Time 6:33 AM CDT 8:22 PM CDT
Civil Twilight 6:03 AM CDT 8:53 PM CDT
Nautical Twilight 5:25 AM CDT 9:30 PM CDT
Astronomical Twilight 4:45 AM CDT 10:10 PM CDT
Moon 10:37 PM CDT (8/19) 10:22 AM CDT (8/19)
Length of Visible Light 14h 49m
Length of Day
13h 48m
Waning Gibbous, 85% of the Moon is Illuminated
Aug 19
Waning Gibbous
Aug 23
Last Quarter
Aug 30
New
Sep 5
First Quarter
Sep 13
Full

Hourly Weather History & Observations

Time (CDT) Temp. Heat Index Dew Point Humidity Pressure Visibility Wind Dir Wind Speed Gust Speed Precip Events Conditions
12:16 AM 57.2 °F - 53.6 °F 88% 29.98 in 10.0 mi Calm Calm - N/A   Clear
12:36 AM 57.2 °F - 53.6 °F 88% 29.98 in 10.0 mi Calm Calm - N/A   Clear
12:58 AM 55.4 °F - 51.8 °F 88% 29.99 in 10.0 mi Calm Calm - N/A   Clear
1:17 AM 55.4 °F - 51.8 °F 88% 29.99 in 10.0 mi Calm Calm - N/A   Clear
1:36 AM 53.6 °F - 51.8 °F 94% 29.99 in 10.0 mi Calm Calm - N/A   Clear
1:56 AM 55.4 °F - 53.6 °F 94% 29.99 in 10.0 mi Calm Calm - N/A   Clear
2:15 AM 53.6 °F - 51.8 °F 94% 29.99 in 10.0 mi Calm Calm - N/A   Clear
2:37 AM 53.6 °F - 51.8 °F 94% 29.99 in 10.0 mi Calm Calm - N/A   Clear
2:56 AM 55.4 °F - 51.8 °F 88% 29.99 in 7.0 mi Calm Calm - N/A   Clear
3:16 AM 53.6 °F - 51.8 °F 94% 29.99 in 10.0 mi Calm Calm - N/A   Clear
3:36 AM 53.6 °F - 51.8 °F 94% 29.99 in 10.0 mi Calm Calm - N/A   Clear
3:59 AM 53.6 °F - 51.8 °F 94% 30.00 in 10.0 mi Calm Calm - N/A   Clear
4:16 AM 53.6 °F - 51.8 °F 94% 30.00 in 10.0 mi Calm Calm - N/A   Clear
4:36 AM 53.6 °F - 51.8 °F 94% 30.00 in 10.0 mi Calm Calm - N/A   Clear
4:56 AM 51.8 °F - 50.0 °F 94% 30.00 in 10.0 mi Calm Calm - N/A   Clear
5:15 AM 53.6 °F - 51.8 °F 94% 30.00 in 10.0 mi Calm Calm - N/A   Clear
5:19 AM 51.8 °F - 50.0 °F 94% 30.00 in 10.0 mi Calm Calm - N/A   Clear
5:38 AM 51.8 °F - 50.0 °F 94% 30.00 in 10.0 mi Calm Calm - N/A   Clear
5:55 AM 51.8 °F - 50.0 °F 94% 30.01 in 10.0 mi Calm Calm - N/A   Clear
6:16 AM 51.8 °F - 50.0 °F 94% 30.02 in 10.0 mi Calm Calm - N/A   Clear
6:36 AM 51.8 °F - 50.0 °F 94% 30.02 in 10.0 mi Calm Calm - N/A   Clear
6:58 AM 51.8 °F - 50.0 °F 94% 30.02 in 10.0 mi Calm Calm - N/A   Clear
7:17 AM 51.8 °F - 50.0 °F 94% 30.02 in 10.0 mi Calm Calm - N/A   Clear
7:36 AM 53.6 °F - 51.8 °F 94% 30.02 in 10.0 mi Calm Calm - N/A   Clear
7:56 AM 55.4 °F - 53.6 °F 94% 30.02 in 10.0 mi Calm Calm - N/A   Clear
8:37 AM 59.0 °F - 55.4 °F 88% 30.02 in 10.0 mi SSE 3.5 mph - N/A   Clear
8:55 AM 60.8 °F - 57.2 °F 88% 30.02 in 10.0 mi South 3.5 mph - N/A   Clear
9:16 AM 64.4 °F - 59.0 °F 83% 30.01 in 10.0 mi South 3.5 mph - N/A   Clear
9:35 AM 64.4 °F - 59.0 °F 83% 30.01 in 10.0 mi South 4.6 mph - N/A   Clear
9:36 AM 64.4 °F - 59.0 °F 83% 30.01 in 10.0 mi South 4.6 mph - N/A   Clear
9:59 AM 68.0 °F - 60.8 °F 78% 30.02 in 10.0 mi South 4.6 mph - N/A   Clear
10:16 AM 68.0 °F - 60.8 °F 78% 30.02 in 10.0 mi SSW 5.8 mph - N/A   Clear
10:36 AM 69.8 °F - 62.6 °F 78% 30.02 in 10.0 mi SSW 6.9 mph - N/A   Clear
10:55 AM 71.6 °F - 62.6 °F 73% 30.02 in 10.0 mi SSW 5.8 mph - N/A   Clear
11:15 AM 71.6 °F - 62.6 °F 73% 30.02 in 10.0 mi SSW 4.6 mph - N/A   Clear
11:19 AM 71.6 °F - 62.6 °F 73% 30.02 in 10.0 mi South 4.6 mph - N/A   Clear
11:37 AM 73.4 °F - 62.6 °F 69% 30.02 in 10.0 mi SSE 5.8 mph - N/A   Clear
11:56 AM 73.4 °F - 62.6 °F 69% 30.02 in 10.0 mi SE 4.6 mph - N/A   Clear
12:16 PM 75.2 °F - 62.6 °F 65% 30.01 in 10.0 mi South 6.9 mph - N/A   Clear
12:36 PM 75.2 °F - 62.6 °F 65% 30.01 in 10.0 mi South 8.1 mph - N/A   Clear
12:58 PM 77.0 °F - 62.6 °F 61% 30.01 in 10.0 mi SSE 8.1 mph - N/A   Clear
1:16 PM 77.0 °F - 62.6 °F 61% 30.00 in 10.0 mi South 8.1 mph - N/A   Clear
1:35 PM 77.0 °F - 64.4 °F 65% 30.00 in 10.0 mi South 5.8 mph - N/A   Clear
1:56 PM 78.8 °F - 64.4 °F 61% 30.00 in 10.0 mi South 6.9 mph - N/A   Clear
2:15 PM 78.8 °F - 64.4 °F 61% 29.99 in 10.0 mi SSE 8.1 mph - N/A   Clear
2:19 PM 78.8 °F - 64.4 °F 61% 29.99 in 10.0 mi South 8.1 mph - N/A   Clear
2:38 PM 78.8 °F - 64.4 °F 61% 29.99 in 10.0 mi South 11.5 mph - N/A   Clear
2:55 PM 78.8 °F - 64.4 °F 61% 29.99 in 10.0 mi South 8.1 mph - N/A   Clear
3:15 PM 78.8 °F - 64.4 °F 61% 29.98 in 10.0 mi SSE 10.4 mph - N/A   Clear
3:16 PM 78.8 °F - 64.4 °F 61% 29.98 in 10.0 mi SSE 9.2 mph - N/A   Clear
3:35 PM 78.8 °F - 64.4 °F 61% 29.98 in 10.0 mi South 11.5 mph - N/A   Clear
3:58 PM 80.6 °F 82.3 °F 64.4 °F 58% 29.97 in 10.0 mi SSE 11.5 mph 16.1 mph N/A   Clear
4:17 PM 78.8 °F - 64.4 °F 61% 29.97 in 10.0 mi SSE 9.2 mph 16.1 mph N/A   Clear
4:36 PM 78.8 °F - 64.4 °F 61% 29.97 in 10.0 mi SSE 11.5 mph - N/A   Clear
4:56 PM 78.8 °F - 64.4 °F 61% 29.96 in 10.0 mi SSE 10.4 mph 16.1 mph N/A   Scattered Clouds
5:15 PM 78.8 °F - 64.4 °F 61% 29.96 in 10.0 mi SSE 11.5 mph - N/A   Clear
5:37 PM 78.8 °F - 66.2 °F 65% 29.96 in 10.0 mi SSE 10.4 mph - N/A   Clear
5:55 PM 78.8 °F - 66.2 °F 65% 29.96 in 10.0 mi SSE 9.2 mph - N/A   Clear
6:16 PM 78.8 °F - 64.4 °F 61% 29.95 in 10.0 mi SE 9.2 mph 16.1 mph N/A   Scattered Clouds
6:36 PM 78.8 °F - 64.4 °F 61% 29.94 in 10.0 mi SE 10.4 mph - N/A   Scattered Clouds
6:59 PM 77.0 °F - 64.4 °F 65% 29.94 in 10.0 mi SE 8.1 mph - N/A   Clear
7:16 PM 77.0 °F - 64.4 °F 65% 29.95 in 10.0 mi SSE 8.1 mph - N/A   Scattered Clouds
7:36 PM 75.2 °F - 66.2 °F 73% 29.94 in 10.0 mi SSE 5.8 mph - N/A   Scattered Clouds
7:55 PM 75.2 °F - 66.2 °F 73% 29.95 in 10.0 mi SSE 6.9 mph - N/A   Scattered Clouds
8:15 PM 73.4 °F - 66.2 °F 78% 29.96 in 10.0 mi SSE 4.6 mph - N/A   Scattered Clouds
8:19 PM 73.4 °F - 64.4 °F 73% 29.96 in 10.0 mi SSE 5.8 mph - N/A   Mostly Cloudy
8:37 PM 73.4 °F - 64.4 °F 73% 29.96 in 10.0 mi SSE 4.6 mph - N/A   Overcast
8:56 PM 73.4 °F - 66.2 °F 78% 29.97 in 10.0 mi SSE 4.6 mph - N/A   Mostly Cloudy
9:16 PM 71.6 °F - 66.2 °F 83% 29.97 in 10.0 mi SSE 5.8 mph - N/A   Mostly Cloudy
9:35 PM 71.6 °F - 66.2 °F 83% 29.98 in 10.0 mi South 4.6 mph - N/A   Overcast
9:57 PM 71.6 °F - 66.2 °F 83% 29.98 in 10.0 mi SSE 5.8 mph - N/A   Overcast
10:15 PM 71.6 °F - 66.2 °F 83% 29.98 in 10.0 mi SE 5.8 mph - N/A   Overcast
10:35 PM 71.6 °F - 66.2 °F 83% 29.98 in 10.0 mi SE 5.8 mph - N/A   Overcast
10:56 PM 71.6 °F - 66.2 °F 83% 29.98 in 10.0 mi SSE 5.8 mph - N/A   Overcast
11:19 PM 71.6 °F - 66.2 °F 83% 29.97 in 10.0 mi SSE 8.1 mph - N/A   Overcast
11:36 PM 71.6 °F - 64.4 °F 78% 29.97 in 10.0 mi SSE 10.4 mph - N/A   Mostly Cloudy
11:56 PM 71.6 °F - 64.4 °F 78% 29.97 in 10.0 mi SSE 9.2 mph - N/A   Scattered Clouds